Airport Information

KOTH - Southwest Oregon Regional Airport

KOTH 241456Z 00000KT 10SM CLR 11/10 A3010 RMK AO2 SLP192 T01110100 56004


  • General Information

  • Coordinates: N 43°25'1"/ W 124°14'45"
  • Location: N/A
  • Surveyed Elevation: 17 MSL

Operations

Flow Name Active Runways Conditions

Green background denotes normal operations.


Common Frequencies

Callsign Frequency Position Name

More at the Document Center


Charts